Regional Weather Roundup
Issued by NWS

Home | Current Version | Previous Version | Text Only | Print | Product List | Glossary Off
Versions: 1 2 3 4 5 6 7 8 9 10 11 12 13 14 15 16 17 18 19 20 21 22 23 24 25 26 27 28 29 30 31 32 33 34 35 36 37 38 39 40 41 42 43 44 45 46 47 48 49 50

000
ASUS44 KMEG 021110
RWRTN
TENNESSEE HOURLY STATE WEATHER ROUNDUP
NATIONAL WEATHER SERVICE MEMPHIS TN
600 AM CDT WED SEP 02 2015

TNZ002-004-019-021-049-052-054-088>092-021200-
WEST TENNESSEE

CITY           SKY/WX    TMP DP  RH WIND       PRES   REMARKS
MEMPHIS INTL   CLOUDY    76  70  82 CALM      30.09R
NWS MEMPHIS      N/A     73 N/A N/A MISG        N/A
JACKSON        MOCLDY    70  68  93 CALM      30.10R FOG
DYERSBURG      PTCLDY    72  70  94 CALM      30.11R
PARIS          CLEAR     66  66 100 CALM      30.12R
LEXINGTON      CLEAR     68  68 100 CALM      30.10R
$$

TNZ008-025-027-028-033-062-065-066-021200-
NORTH MIDDLE TENNESSEE

CITY           SKY/WX    TMP DP  RH WIND       PRES   REMARKS
NASHVILLE      MOCLDY    70  67  90 CALM      30.12R
CLARKSVILLE    CLOUDY    68  67  96 CALM      30.11R FOG
SMYRNA         PTCLDY    67  67 100 CALM      30.13R
COOKEVILLE       N/A     64  64 100 CALM      30.13S VSB 1
CROSSVILLE     PTCLDY    65  63  93 CALM      30.18R FOG
$$

TNZ061-075-076-078-094-096-097-021200-
SOUTH MIDDLE TENNESSEE

CITY           SKY/WX    TMP DP  RH WIND       PRES   REMARKS
FAYETTEVILLE   CLEAR     68  66  94 CALM      30.12R
$$

TNZ017-018-042-046-047-021200-
NORTHEAST TENNESSEE

CITY           SKY/WX    TMP DP  RH WIND       PRES   REMARKS
TRI CITIES     PTCLDY    64  62  93 CALM      30.17R FOG
$$

TNZ012-013-036-069-073-074-021200-
CENTRAL EAST TENNESSEE

CITY           SKY/WX    TMP DP  RH WIND       PRES   REMARKS
KNOXVILLE      PTCLDY    69  69 100 CALM      30.12R
OAK RIDGE      PTCLDY    69  66  90 CALM      30.14R
$$

TNZ083-085-099-021200-
SOUTHEAST TENNESSEE

CITY           SKY/WX    TMP DP  RH WIND       PRES   REMARKS
CHATTANOOGA    MOCLDY    71  68  90 CALM      30.12R
$$

SKY/WX REPORTED AS FAIR MEANS FEW OR NO CLOUDS BELOW
12 THOUSAND FEET.



USA.gov is the U.S. government's official web portal to all federal, state and local government web resources and services.